Regional Weather Roundup
Issued by NWS

Home | Current Version | Previous Version | Graphics & Text | Print | Product List | Glossary On
Versions: 1 2 3 4 5 6 7 8 9 10 11 12 13 14 15 16 17 18 19 20 21 22 23 24 25 26 27 28 29 30 31 32 33 34 35 36 37 38 39 40 41 42 43 44 45 46 47 48 49 50
000
ASUS44 KMEG 172310
RWRTN
TENNESSEE HOURLY STATE WEATHER ROUNDUP
NATIONAL WEATHER SERVICE MEMPHIS TN
600 PM CDT TUE OCT 17 2017

TNZ002-004-019-021-049-052-054-088>092-180000-
WEST TENNESSEE

CITY           SKY/WX    TMP DP  RH WIND       PRES   REMARKS
MEMPHIS INTL   PTCLDY    68  43  40 SE6       30.21F
NWS MEMPHIS      N/A     68 N/A N/A MISG        N/A
JACKSON        CLOUDY    64  49  57 CALM      30.23F
SOMERVILLE     CLEAR     66  52  59 CALM      30.21S
COVINGTON      CLEAR     66  45  45 CALM      30.22S
UNION CITY     CLEAR     64  43  45 CALM      30.22F
BOLIVAR        CLEAR     64  48  55 NE6       30.21F
PARIS          CLEAR     59  48  67 CALM      30.23S
HUNTINGDON     CLEAR     63  45  51 E3        30.23S
LEXINGTON      CLEAR     64  52  63 CALM      30.23S
SELMER         CLEAR     63  52  67 CALM      30.23R
SAVANNAH       CLEAR     63  54  72 CALM      30.22S
$$

TNZ008-025-027-028-033-062-065-066-180000-
NORTH MIDDLE TENNESSEE

CITY           SKY/WX    TMP DP  RH WIND       PRES   REMARKS
NASHVILLE      CLOUDY    65  40  39 N3        30.25S
PORTLAND       CLEAR     61  43  51 E3        30.25R
CLARKSVILLE    PTCLDY    63  41  44 SE3       30.24F
SMYRNA         CLEAR     62  44  51 NW3       30.26R
COOKEVILLE     CLEAR     57  48  72 CALM      30.25R
GALLATIN       CLEAR     63  41  45 CALM      30.28R
CROSSVILLE     CLEAR     56  43  61 CALM      30.27S
$$

TNZ061-075-076-078-094-096-097-180000-
SOUTH MIDDLE TENNESSEE

CITY           SKY/WX    TMP DP  RH WIND       PRES   REMARKS
FAYETTEVILLE   CLEAR     64  43  45 NE5       30.23S
TULLAHOMA      CLEAR     61  43  51 NW3       30.26S
WINCHESTER     CLEAR     63  50  63 CALM        N/A
COLUMBIA       CLEAR     61  45  55 E5        30.22S
SHELBYVILLE    CLEAR     63  46  55 N5        30.24S HAZE
$$

TNZ017-018-042-046-047-180000-
NORTHEAST TENNESSEE

CITY           SKY/WX    TMP DP  RH WIND       PRES   REMARKS
TRI CITIES     PTCLDY    60  41  49 CALM      30.27S
ELIZABETHTON   CLEAR     54  43  66 CALM      30.27R
$$

TNZ012-013-036-069-073-074-180000-
CENTRAL EAST TENNESSEE

CITY           SKY/WX    TMP DP  RH WIND       PRES   REMARKS
KNOXVILLE      PTCLDY    62  41  46 CALM      30.26R
OAK RIDGE      CLEAR     59  48  67 CALM      30.28S
DOWNTOWN KNOXV CLEAR     57  48  72 CALM      30.27S
GATLINBURG     CLEAR     61  41  48 CALM      30.27R
MORRISTOWN     CLEAR     61  36  39 CALM      30.27S
JACKSBORO      CLEAR     57  45  62 CALM      30.30S
$$

TNZ083-085-099-180000-
SOUTHEAST TENNESSEE

CITY           SKY/WX    TMP DP  RH WIND       PRES   REMARKS
CHATTANOOGA    PTCLDY    65  41  41 NE3       30.26S
DAYTON         CLEAR     59  50  72 CALM      30.25S
$$

SKY/WX REPORTED AS FAIR MEANS FEW OR NO CLOUDS BELOW
12 THOUSAND FEET.





USA.gov is the U.S. government's official web portal to all federal, state and local government web resources and services.